Location: Macksville High School
(37.9611°N, 99.9654°W)
Time: 01:13:11
(UTC+00:00)

Cosmos 1937 Rocket - Pass Details

Date: 17 January 2021
Orbit: 747 x 780 km, 74.0° (Epoch: 07 March)

Event Time Altitude Azimuth Distance (km) Brightness Sun altitude
Rises 12:50:34 0° 343° (NNW) 3,264 6.4 -12.4°
Reaches altitude 10° 12:52:58 10° 344° (NNW) 2,329 5.7 -12.0°
Maximum altitude 12:58:16 80° 72° (ENE) 788 3.7 -11.0°
Drops below altitude 10° 13:03:29 10° 159° (SSE) 2,294 6.6 -10.0°
Sets 13:05:50 0° 160° (SSE) 3,211 7.3 -9.6°
